This is the latest recevied weather packets stored in our database for station/object JH5EWP-13. If no packets are shown the sender has not sent any weather packets the latest 10 day(s).
| Time | Temp. | Humidity | Pressure | Rain* | Wind** | Luminosity | Snow |
|---|---|---|---|---|---|---|---|
| 1777658925 | 12.22° C | 82% | 1002.5 hPa | 0 mm | - | - | - |
| 1777658025 | 12.22° C | 82% | 1002.3 hPa | 0 mm | - | - | - |
| 1777657125 | 12.22° C | 82% | 1002.4 hPa | 0 mm | - | - | - |
| 1777656226 | 11.67° C | 82% | 1002.2 hPa | 0 mm | - | - | - |
| 1777655326 | 12.22° C | 82% | 1002.3 hPa | 0 mm | - | - | - |
| 1777654426 | 12.22° C | 81% | 1002.5 hPa | 0 mm | - | - | - |
| 1777653526 | 12.22° C | 81% | 1002.3 hPa | 0 mm | - | - | - |
| 1777652625 | 12.22° C | 81% | 1002.4 hPa | 0 mm | - | - | - |
| 1777651725 | 12.22° C | 81% | 1002.3 hPa | 0 mm | - | - | - |
| 1777650825 | 12.22° C | 79% | 1002.1 hPa | 0 mm | - | - | - |
| 1777649926 | 12.22° C | 79% | 1002.1 hPa | 0 mm | - | - | - |
| 1777649026 | 12.78° C | 78% | 1002.1 hPa | 0 mm | - | - | - |
| 1777648126 | 12.78° C | 75% | 1001.9 hPa | 0 mm | - | - | - |
| 1777647225 | 13.33° C | 74% | 1001.8 hPa | 0 mm | - | - | - |
| 1777646325 | 13.33° C | 73% | 1001.8 hPa | 0 mm | - | - | - |
| 1777645425 | 13.89° C | 73% | 1001.6 hPa | 0 mm | - | - | - |
| 1777644524 | 14.44° C | 73% | 1001.6 hPa | 0 mm | - | - | - |
| 1777643625 | 14.44° C | 72% | 1001.5 hPa | 0 mm | - | - | - |
| 1777642724 | 15° C | 72% | 1001.5 hPa | 0 mm | - | - | - |
| 1777641826 | 15° C | 72% | 1001.6 hPa | 0 mm | - | - | - |
| 1777640926 | 15° C | 72% | 1001.6 hPa | 0 mm | - | - | - |
| 1777640026 | 15° C | 71% | 1001.7 hPa | 0 mm | - | - | - |
| 1777639126 | 15° C | 71% | 1001.4 hPa | 0 mm | - | - | - |
| 1777638226 | 15° C | 71% | 1001.2 hPa | 0 mm | - | - | - |
| 1777637325 | 15.56° C | 70% | 1000.8 hPa | 0 mm | - | - | - |
* Rain latest hour (hover to see other rain measurements)
** Current wind speed in m/s (hover to see current wind gust speed)